Temp
25 25 25 25 25 24 24 23 23 23 22 22 22 22 22 22 22 22 22 22 22 21 21 21 21 21 21 21 21 21 21 21 21 20 20 20 20 20 20 20 20 20 20 19 19 19 19 19 18 18 18 18 18 17 17 17 17 17 17 16 16 16 16 16 16 17 18 18 19 19 19 20 20 21 22 22 22 22 22 23 23 23 23 24 23
25 25 25 25 24 24 24 23 23 23 23 22 22 22 22 22 22 22 22 22 22 22 22 21 21 21 21 21 21 21 20 21 20 20 20 20 20 20 20 20 20 20 20 19 19 19 19 18 18 18 18 18 17 17 17 17 16 16 16 16 15 16 16 16 16 16 17 18 18 19 19 19 20 20 21 21 22 22 22 23 23 23 23 23 23
26 25 25 25 24 24 24 24 23 23 23 23 23 23 23 23 23 23 23 23 23 23 22 22 22 21 21 21 21 20 20 20 20 20 20 20 20 20 19 19 19 19 19 19 19 19 19 18 18 18 18 17 17 17 17 16 16 15 15 15 15 15 15 15 15 16 16 17 18 19 19 19 20 20 20 21 21 21 22 22 23 23 23 23 23
26 25 25 24 24 24 24 24 23 23 23 23 23 23 24 24 24 23 23 23 23 23 23 22 22 22 22 21 21 21 21 20 20 20 20 20 20 20 19 19 19 19 19 19 19 19 18 18 18 18 18 17 17 16 16 16 15 15 15 15 14 14 14 15 15 15 15 16 17 18 19 19 19 20 20 20 21 21 22 22 23 23 23 23 23
26 25 25 24 24 24 24 24 23 23 23 23 24 24 24 24 24 24 24 23 23 23 23 23 23 22 22 22 22 22 21 21 20 20 20 20 20 20 20 19 19 19 19 19 19 19 18 18 18 18 17 17 17 16 16 15 15 15 15 14 14 14 14 14 14 14 15 16 17 18 18 19 19 20 20 20 21 21 22 22 22 23 23 23 23
27 25 25 25 25 24 24 24 24 24 23 24 24 24 24 24 24 24 23 22 22 22 22 22 23 23 23 22 22 22 22 21 21 20 20 20 20 20 20 19 19 19 19 19 19 19 19 18 18 18 17 17 16 16 15 15 14 14 15 14 14 14 14 14 14 14 14 15 16 17 18 18 19 19 20 20 21 21 22 22 22 22 22 22 23
27 26 26 26 25 25 24 24 24 24 24 24 24 24 24 24 23 23 22 22 22 22 22 22 23 23 22 22 22 21 21 21 21 20 20 20 20 20 20 19 19 19 19 19 19 19 19 18 18 18 17 17 17 16 15 15 14 14 15 14 14 14 14 14 14 14 14 15 16 17 17 17 18 19 19 20 20 21 21 21 21 21 22 22 22
27 26 26 26 26 25 25 24 24 24 24 24 24 23 23 23 23 22 22 22 22 22 22 22 22 22 22 22 22 21 21 21 21 20 20 20 19 20 20 19 19 19 19 19 19 19 19 18 18 18 17 17 17 17 16 15 15 14 15 15 14 14 14 14 14 14 14 14 15 16 17 17 18 18 19 19 20 20 21 21 21 21 21 21 21
26 26 26 26 26 25 25 25 24 24 24 24 23 23 23 23 22 22 22 21 21 22 22 22 22 22 22 22 22 21 21 21 21 20 19 19 19 19 19 19 19 19 19 19 19 19 19 18 18 18 17 17 17 17 16 16 15 15 15 15 14 14 14 14 13 14 14 14 15 16 17 17 17 18 18 19 19 20 21 21 21 21 21 21 21
26 26 26 26 25 25 25 25 24 24 24 24 23 23 23 23 22 22 22 21 21 22 22 22 22 22 22 22 21 21 21 21 20 20 20 19 19 19 19 19 19 19 19 19 19 19 19 19 18 18 18 17 17 17 17 16 16 15 15 15 14 14 14 13 13 14 14 14 15 16 16 17 17 18 18 19 19 20 20 20 21 21 21 21 20
25 26 26 25 25 25 25 24 24 24 24 23 23 23 23 23 22 22 22 22 21 22 22 22 22 22 22 22 21 21 21 21 20 20 20 20 19 19 19 19 19 19 19 19 19 19 19 19 18 18 18 17 17 17 17 16 16 15 15 15 15 15 14 14 14 14 14 14 15 15 16 16 17 18 18 19 19 20 20 20 21 21 21 20 20
26 26 25 25 25 25 24 24 24 24 24 23 23 23 23 22 22 22 22 22 22 22 22 22 22 22 22 22 21 21 21 21 21 20 20 20 19 19 19 19 19 19 18 19 19 19 19 18 18 18 18 17 17 17 17 16 16 15 16 16 16 15 15 15 14 14 14 14 15 15 15 16 16 17 18 19 19 20 20 21 21 21 21 20 20
26 25 25 25 25 25 24 24 24 24 24 23 23 23 23 23 23 22 22 22 22 22 22 22 22 22 22 22 21 21 21 20 20 20 20 20 19 19 19 19 19 18 18 18 18 18 18 18 18 17 17 16 16 16 16 16 16 16 16 16 15 15 15 15 15 15 14 14 15 15 15 16 16 17 17 18 19 20 20 20 21 21 20 20 21
26 25 25 25 25 25 24 24 24 24 24 23 23 23 23 23 23 22 22 22 22 22 22 22 22 22 22 21 21 21 21 20 20 20 20 20 19 19 19 19 18 18 18 18 18 18 18 17 16 16 16 16 16 16 16 16 16 15 15 15 15 15 15 14 15 15 15 15 15 15 15 16 16 16 17 17 19 19 20 20 21 20 20 20 21
26 25 25 25 25 25 24 24 24 24 24 24 23 23 23 23 23 22 22 22 22 23 22 22 22 22 21 21 21 21 21 21 21 20 20 19 19 19 18 18 18 18 18 18 18 18 18 17 16 17 17 17 17 16 16 16 15 15 15 15 15 15 14 14 14 14 15 15 15 15 15 16 16 16 16 17 18 19 20 20 20 20 20 20 21
26 26 25 25 25 25 25 25 24 24 24 24 24 23 23 23 23 22 22 22 22 22 22 22 22 22 22 21 21 21 21 21 21 20 20 19 19 18 18 18 18 17 17 18 18 17 18 17 17 17 17 17 17 17 16 15 15 15 15 15 15 15 14 14 14 14 14 14 14 14 14 15 15 16 16 16 17 18 19 19 19 19 19 19 19
26 26 26 25 25 25 25 25 25 24 24 24 23 23 23 23 23 22 22 21 22 22 22 22 22 22 22 21 21 21 21 20 20 20 20 19 18 18 18 18 17 17 17 17 17 17 18 18 18 17 17 17 17 17 16 15 15 15 15 15 14 14 15 15 14 14 14 14 14 14 14 14 14 14 15 16 16 17 17 18 19 20 19 19 18
26 26 26 26 25 25 25 25 25 24 24 24 23 23 23 23 23 22 22 22 22 23 22 22 22 22 21 21 21 21 20 21 21 20 19 19 18 18 18 17 17 17 17 17 17 17 18 18 18 18 17 17 17 16 15 15 15 15 15 14 14 14 14 14 14 13 13 14 14 14 14 14 14 14 14 15 16 17 16 17 19 20 19 19 19
26 26 26 26 26 26 26 25 25 25 24 24 23 23 23 23 23 23 22 22 23 22 22 22 22 22 21 21 21 21 21 21 20 20 19 19 18 18 17 17 17 17 17 17 17 17 18 18 18 18 17 17 16 16 16 15 15 15 15 14 13 13 14 14 13 13 13 14 14 14 15 15 15 14 14 14 15 16 16 17 19 20 19 19 20
27 26 26 26 26 26 26 26 25 25 24 24 23 23 23 23 23 22 22 22 23 22 22 22 22 21 21 21 20 20 20 21 20 19 19 18 18 18 17 17 17 17 17 17 17 17 18 18 18 18 17 17 16 16 16 15 15 15 14 13 13 13 14 14 14 13 13 13 14 14 15 16 15 15 15 14 15 16 17 17 19 20 20 19 20
27 27 27 26 26 26 26 26 25 25 24 24 23 23 23 23 22 22 22 22 22 22 22 21 21 20 19 18 18 17 17 18 19 19 18 18 18 18 17 17 16 16 16 16 17 17 18 18 18 17 17 17 16 16 16 15 15 14 14 14 13 14 14 15 14 13 13 13 14 14 14 15 15 16 16 15 15 16 17 17 19 20 20 20 20
28 27 27 27 26 26 26 26 25 25 24 23 23 23 22 22 21 21 22 22 21 21 21 21 20 18 17 17 17 17 17 17 17 18 18 18 17 17 17 17 16 16 16 16 16 17 17 18 18 17 17 17 16 16 15 15 15 14 14 14 14 14 15 15 13 13 13 13 13 13 14 14 15 16 17 16 16 17 18 18 19 20 20 21 21
27 27 27 27 26 26 26 25 25 24 23 23 22 22 21 21 20 20 21 21 21 20 20 20 19 18 17 17 17 18 18 17 17 17 17 17 17 16 16 16 16 16 15 15 16 16 17 17 17 17 17 17 16 16 15 14 14 14 14 14 14 15 15 15 13 12 13 13 13 13 13 13 14 15 17 18 18 18 19 19 20 20 21 21 21
26 26 26 26 26 26 25 25 24 23 23 22 22 21 20 20 19 19 20 20 20 20 19 19 18 17 17 17 17 17 18 17 17 16 16 16 16 16 16 16 16 16 16 16 16 17 17 17 17 17 17 17 16 16 15 14 13 14 14 14 14 15 15 14 12 12 13 13 13 13 13 13 13 14 15 17 19 19 19 20 20 20 20 21 21
26 25 25 25 25 25 24 23 22 22 22 21 21 21 20 20 20 20 20 20 20 19 19 19 18 17 17 17 16 17 17 17 17 16 15 15 16 16 16 17 16 16 16 16 17 17 16 17 17 17 17 17 16 16 15 14 14 13 13 13 14 13 13 12 11 12 12 12 12 13 13 13 13 13 14 16 18 19 19 20 20 20 20 20 21
25 24 24 24 24 23 22 21 21 21 21 21 20 20 20 20 20 20 20 20 20 19 19 19 17 17 17 16 16 17 17 16 15 15 15 15 16 16 16 16 15 15 16 16 16 16 17 17 17 17 17 16 16 15 14 14 13 13 12 12 12 11 11 11 11 11 11 11 12 12 13 13 13 13 14 15 15 16 18 19 20 20 21 20 20
24 24 23 21 20 20 20 20 21 21 21 20 20 20 20 20 20 20 20 20 19 19 19 19 17 17 17 16 16 16 16 15 14 14 15 15 15 14 14 14 14 15 15 15 16 16 17 17 17 16 16 16 15 15 14 13 13 12 12 11 11 10 10 10 11 11 11 11 11 12 12 13 13 13 13 13 13 14 16 18 19 19 20 20 20
22 21 20 20 20 21 21 21 21 21 20 20 20 20 20 20 20 19 18 18 18 18 18 18 17 17 17 16 15 16 15 14 14 13 13 14 13 12 13 13 14 14 14 14 15 16 16 16 16 16 16 15 14 14 14 13 13 12 11 11 11 10 10 11 11 11 11 11 11 12 12 13 13 13 13 13 13 13 14 15 17 18 19 19 19
22 22 22 22 22 22 22 22 22 21 21 20 19 19 19 19 18 17 17 17 16 16 16 16 16 16 16 15 15 15 14 13 13 13 12 13 12 11 12 13 13 14 14 14 15 16 16 16 15 15 15 14 14 13 13 13 12 12 11 11 10 10 10 10 10 10 11 11 11 11 12 12 13 13 13 13 13 13 13 13 14 16 17 17 17
23 23 24 23 22 22 22 22 22 21 21 20 19 18 17 18 17 16 16 15 15 15 15 15 15 15 14 13 13 13 12 12 12 12 13 13 12 11 12 13 13 13 14 14 15 16 16 15 14 14 14 14 13 12 12 12 12 11 11 11 10 10 10 9 10 10 10 11 11 11 11 12 12 13 13 13 13 13 13 13 13 14 14 14 14
23 24 24 23 22 22 22 22 22 21 21 21 20 18 16 16 15 15 14 14 14 14 14 13 13 14 13 12 12 12 12 12 12 12 13 13 12 11 12 13 13 13 13 14 15 15 14 14 14 13 13 13 13 12 12 12 11 11 11 11 11 10 9 9 9 10 10 11 11 11 11 11 12 12 13 13 13 13 13 13 13 13 13 13 13
23 23 23 22 21 21 22 22 21 21 21 21 20 19 17 15 13 12 13 13 13 13 13 12 13 13 13 12 11 11 11 12 12 12 12 12 12 12 12 13 13 13 13 14 14 13 13 13 13 12 12 12 12 12 11 11 11 11 10 10 10 10 9 9 9 9 10 10 10 10 11 11 11 12 12 13 13 13 13 13 13 13 13 13 13
22 22 22 22 21 21 21 21 21 21 21 21 20 20 19 16 14 11 11 11 12 12 12 12 12 12 12 11 11 11 11 11 11 12 12 12 12 12 13 12 12 12 13 13 13 12 12 12 11 11 11 11 11 11 11 10 10 10 10 10 10 10 9 9 9 9 9 9 10 10 10 10 11 11 12 12 13 13 13 13 13 13 13 13 13
22 22 22 22 21 21 21 20 21 21 20 20 19 19 19 18 16 13 12 11 11 11 11 11 11 11 11 11 11 11 11 11 11 12 12 12 12 13 13 13 12 12 12 12 11 11 10 10 10 9 9 9 9 10 9 9 9 9 9 9 9 9 9 9 8 8 9 9 9 9 10 10 10 11 11 12 12 12 13 13 13 13 13 13 13
21 22 21 21 21 21 21 21 20 20 19 19 19 19 18 18 17 16 15 14 13 12 12 11 11 11 11 11 11 11 11 11 11 11 12 12 12 13 13 13 12 11 11 10 10 9 9 9 9 9 9 9 9 9 9 8 8 8 8 9 9 9 8 8 8 8 9 9 9 9 10 10 11 11 11 11 11 12 12 13 13 13 13 13 13
21 21 21 21 20 20 20 20 19 19 19 18 18 18 17 17 17 17 16 15 15 14 13 12 11 11 10 11 11 11 11 11 11 11 12 12 12 12 12 12 11 10 10 9 9 9 9 9 9 9 9 9 8 8 8 8 8 8 8 8 9 9 8 8 8 8 8 9 9 9 10 10 11 11 11 11 11 11 11 12 12 13 13 14 14
21 20 20 20 19 19 19 18 18 18 18 17 17 17 17 17 17 16 16 15 15 14 13 13 12 11 10 11 11 11 11 11 11 11 12 12 12 11 11 10 10 10 9 9 9 9 9 9 9 9 9 9 9 9 9 9 9 9 9 9 9 9 8 8 8 7 8 8 8 9 9 10 11 11 11 11 11 11 11 11 12 12 13 13 14
19 19 18 19 19 18 18 17 17 17 17 17 17 17 16 16 16 16 15 15 15 15 14 14 13 12 11 10 10 11 11 11 11 12 12 12 11 11 10 10 10 10 9 9 9 10 10 10 9 9 9 9 9 9 9 9 9 9 9 9 9 8 8 8 7 7 7 7 8 8 9 10 10 11 11 11 11 11 11 11 11 11 12 13 13
18 18 18 18 18 18 17 17 17 17 17 17 16 16 16 16 15 15 15 15 14 14 14 14 12 11 10 9 10 11 12 12 12 12 12 11 11 10 10 10 10 9 9 9 10 10 10 10 9 9 8 8 8 8 8 9 9 9 9 9 8 8 8 8 7 7 7 7 7 8 8 9 10 10 10 11 11 11 11 11 11 11 12 12 12
17 18 17 17 17 17 17 17 17 17 16 16 16 17 16 16 15 15 15 15 14 14 14 13 12 10 9 9 9 10 11 12 12 11 11 11 10 10 10 9 9 9 9 9 9 10 10 10 9 9 8 8 8 8 8 8 8 8 8 8 8 8 8 7 7 7 7 7 7 8 8 9 9 10 10 11 11 11 11 11 11 11 11 11 11
17 17 17 17 17 17 17 17 16 16 16 15 16 16 15 15 15 15 14 14 14 13 13 13 11 9 9 9 9 10 11 11 11 11 11 11 10 9 9 9 8 9 9 9 9 10 10 10 9 9 8 8 8 8 8 8 8 8 8 8 7 7 7 7 7 7 7 7 7 8 8 9 9 9 9 10 11 11 11 11 11 10 11 11 11
17 17 17 17 17 16 16 15 15 15 14 14 15 14 14 15 15 14 14 14 14 13 13 12 11 9 9 9 9 9 10 11 10 10 10 10 10 10 9 9 8 8 8 9 9 9 9 9 9 9 8 8 8 8 8 8 7 7 7 7 7 6 6 6 6 6 6 6 7 8 9 9 9 9 9 10 11 11 11 11 10 10 10 10 10
17 16 16 16 16 15 15 14 14 14 14 14 14 14 14 14 13 13 14 14 14 14 13 12 11 10 9 9 9 9 10 10 10 10 10 10 10 10 10 9 9 8 8 8 8 8 9 9 9 9 8 8 8 8 7 7 7 6 6 5 5 5 4 4 4 5 5 6 6 8 9 9 9 9 9 9 10 11 11 11 10 10 10 10 10
17 16 15 15 15 15 14 14 14 14 14 14 13 13 13 13 13 14 14 15 15 15 14 12 11 10 10 9 9 9 10 10 10 9 10 10 10 10 10 9 9 9 9 8 8 8 9 9 9 8 8 8 7 7 7 6 6 5 5 4 4 4 3 4 4 4 4 5 6 7 8 9 9 9 9 9 10 10 10 10 10 10 10 10 10
16 16 15 15 14 14 14 14 14 14 13 13 13 13 13 14 14 14 14 14 14 14 14 13 12 11 10 10 10 10 10 10 9 9 9 10 10 10 10 10 10 9 9 9 8 8 8 8 8 8 8 7 7 7 7 6 5 4 4 4 4 3 3 4 4 4 4 5 6 6 7 9 9 9 9 9 9 9 10 10 10 10 10 10 10
16 15 15 15 14 14 14 14 14 14 14 14 14 14 14 14 14 14 14 14 13 13 13 13 13 12 11 10 10 10 10 10 10 9 9 9 10 10 11 11 10 10 9 9 9 8 8 8 8 7 7 7 7 6 6 5 4 4 4 4 4 4 4 5 5 5 5 5 6 6 7 8 9 9 8 9 9 9 9 10 10 10 10 10 10
15 15 15 15 15 15 15 14 14 14 14 14 15 14 14 14 14 14 14 13 13 12 13 13 13 12 11 11 10 11 11 11 11 11 10 10 10 10 10 10 10 9 9 8 8 8 8 8 7 7 7 7 6 6 5 4 4 3 4 4 4 5 5 5 5 5 5 6 6 6 7 8 9 8 8 8 9 9 9 9 10 10 11 10 10
16 16 16 16 16 16 16 15 15 14 14 14 14 14 14 14 14 14 13 13 12 12 12 13 13 12 12 12 12 12 12 11 11 12 12 11 11 10 9 9 9 9 9 8 8 8 7 7 7 7 7 6 6 5 5 4 3 3 4 4 4 4 5 5 5 5 5 6 7 7 7 8 8 8 8 8 8 9 9 9 10 10 11 10 10
17 17 17 17 16 16 16 16 15 15 15 15 15 14 14 14 14 13 13 12 12 12 12 13 13 13 12 12 12 12 12 12 12 12 12 11 11 10 9 9 9 9 9 8 8 8 7 7 7 7 7 6 6 5 4 4 3 3 3 4 4 4 5 5 5 5 5 6 6 7 7 7 8 8 8 8 8 8 9 9 9 10 10 10 10
17 16 16 16 16 16 16 16 15 15 15 15 15 15 15 15 15 14 13 12 12 13 13 13 13 13 12 12 12 12 12 12 12 11 11 11 10 9 9 8 8 9 9 8 8 8 7 7 7 7 6 6 5 4 3 3 3 3 3 3 4 4 5 5 5 5 5 6 6 6 7 7 7 8 7 7 7 8 8 9 9 10 10 10 10
17 16 17 17 16 16 16 16 16 16 16 16 16 15 15 15 15 15 14 13 13 13 13 13 13 13 13 12 12 12 12 12 11 11 11 11 10 9 9 9 8 8 8 8 8 8 8 7 7 7 7 6 5 4 3 3 3 3 3 4 4 4 4 5 5 5 5 6 6 6 6 7 7 7 7 7 7 8 8 8 9 9 9 10 10
Height
796 800 802 804 805 806 808 808 809 809 809 809 809 809 810 809 809 809 809 810 810 811 811 811 811 811 811 811 810 810 810 809 809 809 808 808 807 806 806 805 805 804 803 803 802 801 800 799 798 798 797 796 795 794 792 791 790 788 787 784 782 781 780 778 774 765 760 761 760 758 759 760 759 759 759 757 757 757 757 758 757 757 758 758 759
795 798 801 802 803 805 806 807 808 808 807 808 807 808 808 807 807 807 807 808 808 808 809 809 809 809 809 809 809 808 808 807 807 807 806 806 805 805 805 804 803 802 801 801 800 799 798 797 796 796 795 795 794 792 791 790 788 786 784 782 779 778 778 775 772 765 757 754 756 754 754 755 754 753 754 754 753 753 753 753 753 753 753 753 754
793 797 800 802 802 803 805 806 807 807 806 806 806 806 805 804 804 805 806 806 806 806 806 806 806 806 806 807 806 806 806 806 805 805 804 804 803 802 802 802 802 801 800 799 798 797 796 795 795 794 793 793 792 791 789 788 787 784 781 780 778 776 775 773 770 765 757 751 751 750 749 749 749 748 749 749 749 749 749 749 749 749 749 749 749
792 796 798 800 801 802 803 804 805 805 804 804 804 804 804 803 803 804 804 805 805 805 805 804 804 804 804 804 804 803 803 803 803 802 802 801 800 800 799 799 799 799 798 797 796 795 794 793 793 792 791 791 790 789 787 786 784 782 779 778 776 773 771 770 767 763 757 750 746 746 744 744 744 744 744 745 745 745 744 745 745 744 744 745 744
789 793 795 797 799 799 800 802 803 803 803 803 802 802 802 801 801 802 802 802 803 803 803 803 803 802 802 802 802 801 801 801 800 800 800 799 798 798 797 797 797 796 796 796 794 793 793 792 791 790 789 789 788 786 785 784 782 779 777 775 773 771 768 766 763 760 756 749 743 741 740 739 739 739 740 740 741 740 740 740 740 740 740 741 741
786 789 791 793 795 797 798 799 801 802 801 801 801 800 800 800 800 800 800 801 801 801 801 801 801 800 800 799 799 799 799 799 798 798 798 797 796 796 795 795 795 794 794 793 792 791 791 790 789 788 787 787 786 785 783 782 779 777 775 773 770 768 764 762 759 756 752 747 741 737 736 735 735 734 735 736 737 736 735 735 736 736 736 737 737
784 786 788 789 791 793 795 797 798 799 800 799 799 799 799 799 799 799 799 799 799 799 799 799 799 798 798 797 797 797 797 796 796 795 795 795 794 794 793 793 792 792 791 791 790 789 788 788 787 786 786 785 784 783 781 779 777 774 772 770 767 765 761 758 755 752 749 744 740 735 732 731 731 730 730 732 733 732 732 732 731 731 732 732 733
781 783 785 786 788 790 791 794 796 797 798 797 797 797 797 797 797 797 798 798 798 798 797 797 797 796 796 796 795 795 794 794 793 793 793 792 792 791 791 791 790 790 789 788 787 787 786 786 785 784 784 783 782 781 778 776 774 772 769 767 765 762 758 755 752 748 745 742 737 733 729 727 727 726 726 728 728 727 727 728 727 727 727 728 729
778 780 782 783 785 787 789 792 793 795 795 795 795 795 795 795 796 796 797 797 797 796 796 795 795 795 794 794 793 793 792 792 791 791 791 790 789 789 789 788 788 787 787 786 785 784 784 784 783 783 782 781 780 778 776 774 772 769 767 764 762 759 755 752 749 745 742 739 735 731 727 724 723 723 723 722 723 723 723 724 724 723 724 725 725
775 777 779 781 783 785 787 790 791 792 793 793 793 793 793 793 793 794 795 795 795 794 794 794 793 793 792 792 792 791 790 789 789 789 789 788 787 787 786 786 786 785 784 783 783 782 782 782 781 780 780 778 777 776 773 772 770 767 765 762 759 756 752 749 746 743 740 736 733 730 726 722 720 719 718 718 718 719 719 720 720 720 721 722 722
772 774 776 778 781 783 785 788 789 790 790 790 790 790 790 791 791 792 792 792 792 792 791 791 791 791 790 790 790 789 788 787 786 786 787 786 786 785 784 784 783 783 782 781 781 780 779 779 779 778 777 776 775 773 770 769 767 765 762 760 757 754 751 747 743 740 738 734 731 729 725 720 717 716 715 715 715 714 714 715 715 716 718 719 719
770 771 773 776 779 781 783 785 786 787 787 787 788 788 788 789 789 790 790 790 790 790 789 789 788 789 788 788 787 787 785 785 784 784 784 784 784 783 783 782 781 781 780 779 779 778 777 777 777 776 775 774 772 770 767 766 764 762 759 757 754 751 749 746 741 737 734 731 728 725 723 719 715 713 712 711 710 710 710 710 710 711 713 714 714
767 768 771 774 776 778 781 782 783 784 784 785 785 785 786 787 787 788 788 789 789 788 788 787 786 787 786 785 785 784 783 782 781 782 781 781 781 781 780 780 779 779 778 778 777 776 775 775 774 773 772 771 770 768 765 763 761 759 756 754 750 747 745 743 739 735 731 728 725 721 719 717 712 709 709 708 707 706 705 705 705 706 708 710 710
764 766 769 772 774 776 779 779 781 781 781 782 783 783 784 785 785 786 787 787 787 787 786 785 784 785 784 783 783 781 781 780 779 779 779 779 779 779 778 777 777 776 776 776 775 774 774 773 772 770 769 768 767 766 763 761 759 756 754 751 747 744 740 738 735 732 729 725 721 717 714 712 708 704 704 705 703 702 701 701 701 700 702 704 705
763 765 767 770 772 774 775 776 777 778 779 780 780 781 782 782 784 784 784 785 785 785 784 783 782 782 781 781 780 779 779 779 778 777 777 777 777 776 776 775 774 774 773 773 773 772 772 771 769 767 765 764 763 762 761 758 756 754 751 748 744 740 736 734 731 727 724 721 717 713 709 706 703 700 699 699 699 698 697 697 697 697 697 699 702
762 763 765 768 769 771 772 773 774 775 776 777 778 779 780 781 782 782 782 783 783 783 783 782 780 780 779 778 778 778 778 777 777 776 775 775 775 774 773 772 771 771 770 770 771 770 768 767 766 764 762 760 759 758 758 756 753 751 748 745 741 737 733 730 727 723 719 715 710 705 701 698 695 693 693 693 693 693 694 694 694 695 696 699 700
760 761 763 765 766 767 769 770 771 772 773 774 776 777 778 779 780 780 781 781 781 781 780 779 779 778 777 776 776 776 776 776 775 774 773 773 773 772 771 770 769 769 768 768 768 767 766 765 763 761 759 757 757 756 755 754 751 749 746 742 738 734 728 724 720 715 711 705 700 694 689 685 683 682 683 685 686 689 691 690 689 691 692 695 697
758 759 760 761 763 764 765 766 768 769 770 772 773 775 776 777 777 778 779 779 779 779 778 777 777 775 775 775 774 774 774 773 773 772 771 771 771 770 769 768 767 767 766 766 765 764 763 762 760 759 757 756 755 754 753 751 748 746 744 740 735 730 725 719 713 707 701 695 688 682 675 671 669 669 671 674 677 682 685 685 685 686 688 690 692
756 757 758 759 760 761 762 763 765 766 768 769 771 773 774 774 775 775 777 777 776 776 776 775 774 773 773 773 772 772 772 771 771 771 770 770 769 768 767 766 765 765 764 763 763 762 761 760 758 757 756 754 753 752 750 749 746 743 741 738 734 728 722 716 710 703 696 689 680 672 665 661 660 660 661 665 668 673 677 679 681 682 684 686 687
752 754 755 756 757 759 760 762 763 764 766 767 769 771 771 772 773 773 774 775 774 774 774 773 772 772 772 772 771 771 771 770 770 770 769 768 767 766 766 765 764 763 762 762 761 760 759 758 757 756 754 752 751 749 747 746 744 742 740 737 732 727 721 714 708 703 696 687 678 670 662 656 655 655 655 658 661 664 668 673 676 677 679 682 683
749 751 752 753 755 757 758 760 761 762 764 766 767 768 769 770 772 773 773 773 773 773 772 771 771 771 773 774 774 774 773 771 770 769 768 767 766 765 764 764 763 762 761 760 760 758 757 756 755 754 752 750 748 746 745 744 742 740 738 735 731 726 721 715 708 702 695 686 678 670 661 655 653 651 651 652 654 658 662 667 670 672 674 676 679
748 749 750 751 753 754 756 758 759 760 763 764 765 767 768 770 772 773 773 773 772 771 771 770 770 771 772 773 773 773 773 772 771 769 768 767 765 764 763 763 762 761 760 759 758 756 755 754 753 752 750 748 746 744 743 742 740 738 736 733 729 725 721 716 709 702 694 686 679 671 662 656 651 648 647 648 650 654 658 661 665 667 670 672 674
747 748 749 750 751 753 754 755 757 759 760 762 764 765 767 769 772 774 774 772 770 770 769 769 769 769 770 772 771 770 769 769 769 769 768 767 765 763 762 761 761 760 759 757 756 754 754 753 752 750 748 746 744 743 742 741 739 737 734 731 727 724 720 715 709 703 695 687 680 672 664 658 653 648 646 646 647 651 655 658 661 663 666 668 671
747 748 750 751 751 752 753 753 754 757 758 760 762 764 766 767 770 772 771 770 769 769 768 768 768 768 769 769 768 767 766 766 766 766 766 765 764 762 761 760 759 758 757 756 754 753 752 751 750 748 746 744 743 742 741 740 738 736 732 729 725 723 719 715 711 705 697 690 682 675 668 662 656 651 647 645 647 650 653 656 658 661 663 665 668
746 747 750 752 752 752 751 752 754 756 758 759 761 763 765 765 766 768 768 768 767 767 767 767 767 767 767 767 766 765 764 763 763 763 763 763 762 761 760 758 757 756 755 754 753 752 751 750 748 746 744 743 742 741 741 740 738 735 731 728 725 722 719 716 712 707 701 694 687 680 673 666 661 655 649 646 647 650 652 655 657 659 661 663 665
744 746 749 752 753 753 752 754 756 757 758 760 761 762 763 763 764 765 766 765 765 765 765 765 766 766 766 765 764 763 763 763 762 761 761 762 761 760 758 757 756 755 753 753 752 750 749 748 746 744 743 742 741 740 740 739 737 734 731 727 725 722 720 718 715 710 705 698 692 685 678 672 666 659 652 649 649 650 651 653 655 657 658 661 663
743 745 749 754 756 756 754 755 756 757 758 760 761 762 762 762 763 763 763 763 763 763 763 764 764 765 765 764 764 763 763 762 762 761 761 761 760 759 758 756 755 753 752 751 750 749 748 747 745 744 742 741 741 740 740 739 737 734 731 728 726 724 722 720 717 713 709 704 698 691 684 678 671 664 659 657 655 652 651 651 653 654 656 658 660
744 747 752 756 756 754 754 754 755 757 758 759 760 760 761 762 762 761 761 761 762 762 763 763 763 764 764 763 763 763 763 762 762 761 761 760 759 759 758 756 755 753 751 751 749 748 747 745 745 744 742 742 741 740 739 739 737 734 732 729 727 724 722 720 717 714 711 708 702 695 689 683 677 672 669 665 661 657 654 652 651 652 654 656 658
745 748 751 753 753 752 753 754 755 756 757 758 759 760 760 760 760 760 760 760 761 761 762 763 763 763 763 763 762 762 762 762 762 761 760 759 759 759 758 756 754 752 751 750 749 747 746 745 745 744 743 742 742 740 739 739 737 735 732 730 727 725 723 720 719 716 714 710 705 699 694 689 685 681 677 672 667 664 660 655 652 652 653 656 658
744 746 748 749 751 752 753 754 754 755 756 757 758 758 759 759 759 759 759 760 760 761 761 762 763 763 762 762 762 762 762 762 761 760 759 758 758 758 758 757 755 753 751 750 749 748 747 746 745 745 744 744 743 742 740 739 737 735 733 731 729 727 724 723 721 718 716 712 708 704 700 695 690 686 683 679 675 672 668 663 661 659 658 659 660
744 744 745 747 748 749 751 752 752 754 754 755 756 757 757 758 758 758 759 760 760 760 761 761 762 762 762 762 762 762 762 761 761 759 758 757 757 757 757 756 754 753 752 750 749 748 748 747 747 746 746 745 744 743 742 740 738 736 734 732 731 729 726 724 722 720 718 715 711 707 704 699 694 690 687 685 683 680 676 672 669 667 666 665 664
743 744 744 745 746 748 749 749 750 752 753 753 754 755 756 757 758 759 759 759 760 760 761 761 762 762 762 762 761 761 762 761 760 759 758 757 757 757 757 756 754 753 752 750 749 749 749 749 749 748 747 746 745 745 743 741 740 738 735 734 732 731 729 727 725 722 720 717 714 711 707 703 699 695 692 690 689 686 682 678 675 673 672 670 667
743 743 744 744 745 747 747 748 749 751 751 752 753 754 754 755 756 758 759 760 760 761 761 761 761 762 762 761 761 761 761 760 760 759 758 757 757 756 756 755 754 754 752 751 750 750 750 750 750 750 749 748 747 746 745 743 741 739 737 736 735 733 731 729 727 724 721 719 717 714 711 708 705 700 697 695 693 690 686 683 681 679 677 674 672
742 743 743 744 745 746 746 747 748 749 750 751 752 752 753 754 754 756 758 759 760 760 760 761 761 761 761 761 760 760 760 760 759 759 758 757 757 756 755 755 755 755 753 752 751 751 751 751 752 751 750 749 748 748 747 745 743 741 739 737 736 735 733 730 727 725 723 720 718 716 714 712 709 706 703 700 697 694 691 688 686 684 683 681 678
741 742 742 743 744 744 745 746 747 747 748 750 751 752 753 753 753 754 755 756 757 759 759 760 761 761 761 761 760 760 760 759 759 758 758 757 757 756 755 755 755 755 754 753 752 752 752 753 753 752 752 751 750 749 748 747 745 743 741 739 737 736 734 732 729 727 725 723 721 719 717 715 713 710 708 705 702 699 696 693 691 690 689 687 684
740 741 742 742 742 743 744 745 745 746 747 748 749 751 752 752 753 753 754 754 756 757 758 760 760 761 761 760 760 760 759 759 759 758 758 758 757 756 756 756 756 756 755 754 753 753 753 754 753 753 753 752 751 750 749 748 746 745 743 741 739 737 736 734 732 730 728 726 724 722 719 717 715 713 711 708 706 704 701 699 697 695 694 692 689
740 740 741 741 741 742 743 744 745 746 746 748 749 750 751 752 753 753 754 754 755 756 757 759 760 760 761 760 760 759 759 759 759 758 758 758 758 757 757 757 757 757 756 755 755 754 754 754 754 754 753 753 752 751 750 749 748 746 745 743 741 740 738 737 735 733 731 728 726 724 722 720 718 715 713 711 709 707 705 703 702 700 698 696 693
739 739 739 740 740 741 742 744 745 745 746 747 749 750 751 753 753 754 754 755 755 755 756 758 759 760 761 760 760 759 758 758 758 758 758 759 758 758 758 758 758 758 757 756 756 756 755 755 755 754 754 753 753 752 751 750 749 748 746 744 743 741 740 738 736 735 733 731 729 727 725 723 720 718 716 714 712 710 709 707 706 704 702 700 698
737 738 739 740 740 740 741 743 744 745 745 747 748 750 751 752 753 754 754 755 755 755 756 757 759 760 761 760 759 758 757 758 758 759 759 759 759 759 759 759 759 758 757 757 757 756 756 756 756 755 754 754 753 752 751 750 750 749 747 746 744 743 741 740 738 736 735 734 732 730 727 725 723 721 719 717 715 714 712 711 710 708 706 704 702
736 737 738 739 739 740 740 742 743 744 745 747 748 749 749 750 752 753 754 755 755 755 755 756 758 759 760 760 759 758 758 758 759 759 759 760 760 760 760 760 759 759 758 758 757 757 757 757 756 756 755 754 753 753 752 751 750 749 748 747 746 744 743 742 740 739 737 736 734 732 730 728 726 724 721 719 718 717 716 715 713 711 709 708 706
735 737 738 738 739 739 739 741 742 743 744 747 747 748 749 750 751 752 754 754 754 754 754 755 756 758 760 760 760 759 759 759 760 760 760 760 761 761 760 760 760 759 759 758 758 758 758 758 757 757 756 755 754 754 753 752 751 750 749 748 747 746 744 743 742 740 739 737 736 734 733 731 729 726 724 722 721 720 719 718 716 714 713 711 709
735 737 737 738 739 739 740 741 742 743 745 747 748 748 749 750 750 752 753 753 753 753 753 753 755 757 759 760 760 760 760 760 760 761 760 761 761 761 761 761 760 759 759 759 759 759 759 758 758 757 757 756 755 755 754 753 752 750 750 749 748 747 746 744 742 741 740 738 737 736 735 733 731 729 727 724 723 722 721 720 719 717 715 714 712
736 737 738 738 739 740 741 742 743 745 746 747 748 748 749 749 751 752 752 752 752 751 751 753 755 756 758 759 760 760 760 760 761 761 760 761 761 761 761 760 760 759 760 760 759 759 759 759 758 758 757 757 756 756 755 754 753 752 751 750 749 749 747 745 743 742 740 739 738 737 737 735 734 732 730 728 726 724 723 722 721 719 718 717 715
736 737 738 739 740 741 742 743 744 746 747 747 748 749 749 750 751 751 751 751 751 750 751 752 754 756 757 759 760 760 760 760 761 761 760 760 761 760 760 760 759 759 760 760 760 759 759 759 759 758 758 758 757 757 756 755 754 753 752 751 750 749 748 746 745 743 741 740 739 737 737 737 736 734 733 731 729 728 726 724 723 722 720 719 718
736 737 738 739 740 741 743 744 745 746 747 747 748 748 749 749 749 749 749 750 750 750 750 752 753 755 757 758 759 760 760 760 761 761 761 760 760 759 759 759 759 759 759 759 760 760 759 759 759 759 758 758 758 758 757 756 755 754 753 752 751 750 749 747 746 744 743 742 740 738 738 737 737 736 735 733 732 731 729 727 726 724 723 722 720
736 737 738 739 740 741 742 743 744 745 745 746 746 747 747 747 747 748 749 749 749 750 751 752 753 755 756 758 758 758 758 759 759 760 760 761 760 759 759 759 759 759 759 760 760 760 759 759 759 759 759 759 758 758 758 757 756 755 754 753 752 751 750 748 747 745 745 744 741 739 739 739 738 737 736 735 734 732 731 730 728 726 725 724 722
736 736 737 738 738 739 741 742 743 744 744 745 745 746 746 746 746 747 748 749 750 751 751 751 752 753 754 755 756 756 756 757 757 758 758 759 759 759 759 759 759 759 759 760 760 760 760 760 760 759 759 759 759 759 759 758 757 756 755 754 753 752 750 749 748 746 746 745 743 741 740 740 740 739 737 736 735 733 732 731 730 728 727 726 724
735 735 736 736 737 738 739 741 742 743 744 744 745 745 745 746 746 746 747 748 750 751 750 749 749 749 750 752 753 754 755 756 756 756 756 757 757 758 759 759 759 760 760 760 760 760 760 760 760 760 760 760 760 760 759 758 757 757 756 755 754 753 751 750 749 748 747 746 745 743 742 742 742 740 739 737 736 735 733 732 731 730 729 728 727
734 735 735 735 737 738 739 740 741 742 743 743 743 743 744 744 744 744 746 747 748 749 749 748 747 747 749 751 752 753 754 755 755 755 755 756 756 758 758 759 759 760 760 760 761 761 760 761 761 760 761 761 760 760 759 759 758 757 757 756 755 754 752 751 750 749 748 747 746 745 744 744 743 742 741 739 738 737 735 734 732 731 730 729 728
734 734 734 735 736 736 737 738 739 739 740 740 740 741 741 741 741 741 743 744 745 746 747 746 746 747 749 751 752 752 752 753 754 754 755 756 757 757 758 759 759 759 760 760 760 760 761 761 761 761 761 761 760 760 759 759 759 758 757 756 755 754 753 752 751 750 749 748 747 746 745 745 745 744 743 741 740 738 737 736 734 733 732 731 730
732 732 732 732 733 734 735 736 736 737 737 737 738 738 739 739 738 738 740 741 743 744 745 746 747 747 749 750 750 751 752 753 754 754 755 755 756 757 758 758 759 759 759 760 760 760 761 761 761 761 761 761 760 759 759 759 759 758 758 757 756 755 754 753 752 751 751 750 748 747 747 747 746 745 744 743 742 741 739 738 737 736 735 734 733
Wind_Speed
18 17 15 14 13 12 11 11 11 10 10 9 8 7 8 9 10 9 10 10 9 9 10 11 12 13 14 14 15 15 15 15 14 13 13 13 13 13 12 10 10 11 11 10 9 9 10 11 12 13 13 14 16 18 19 21 23 22 22 23 24 23 22 20 15 16 25 29 28 30 29 28 29 28 27 28 28 29 31 34 35 36 36 37 38
19 18 16 15 14 13 12 12 12 11 10 10 10 10 12 14 13 12 12 11 10 10 10 11 12 13 14 15 16 16 16 16 15 14 13 13 13 14 13 11 11 12 11 11 10 9 9 10 11 12 12 12 14 16 18 20 20 21 23 23 23 23 22 22 20 18 21 26 27 28 28 27 28 30 29 29 29 29 32 34 35 36 36 36 37
19 18 17 15 14 13 12 12 12 12 11 11 11 10 11 14 14 13 12 10 9 10 11 12 13 13 15 16 16 17 16 16 15 15 14 13 12 14 14 13 13 13 12 10 10 9 9 10 10 11 11 11 13 15 17 18 19 20 22 22 22 24 24 23 23 21 23 26 27 27 27 26 27 29 30 31 31 30 32 34 35 35 34 34 36
20 19 18 16 14 14 13 12 12 12 12 12 11 10 10 11 8 7 8 8 9 11 12 13 13 14 15 15 16 16 16 15 14 15 16 16 15 15 15 14 14 14 13 11 10 10 10 10 10 10 10 11 13 15 16 17 19 20 21 22 23 25 26 25 25 25 25 26 27 27 26 25 26 27 28 29 30 31 31 32 33 33 33 31 32
23 22 19 17 15 15 14 13 13 13 12 11 10 10 9 9 7 6 8 8 8 10 12 12 14 15 15 14 15 16 16 15 14 15 17 18 18 18 16 14 13 14 13 12 12 11 11 12 11 10 9 11 13 15 15 17 19 19 20 22 24 25 26 27 27 27 27 27 28 28 26 24 24 26 26 26 27 29 30 31 32 33 33 32 31
23 24 21 18 17 16 15 15 14 14 13 12 10 9 8 9 10 8 6 6 8 10 11 13 15 15 15 14 13 15 16 16 15 15 17 17 18 17 16 15 15 15 14 14 14 13 13 13 12 10 9 11 13 15 15 16 18 20 21 23 25 27 28 29 29 27 27 28 29 27 24 24 24 25 25 25 26 26 26 27 30 32 33 33 33
21 21 19 17 18 18 16 16 15 13 13 12 10 9 9 9 9 9 9 9 10 11 12 14 14 14 14 14 14 15 16 16 15 15 16 17 17 17 17 17 17 17 16 16 16 15 15 14 13 12 10 11 13 15 16 17 18 20 23 25 26 27 29 30 29 27 26 27 27 25 23 24 25 26 26 25 25 25 24 21 23 27 30 32 33
21 19 17 15 16 16 15 15 15 14 13 12 10 9 9 8 9 10 11 11 11 12 13 14 14 14 16 17 17 16 16 16 14 14 15 16 16 16 17 17 17 17 18 19 18 17 16 16 15 14 14 13 14 16 17 18 18 21 24 26 28 28 29 30 28 26 25 24 24 24 23 23 23 25 26 24 22 24 25 21 20 23 28 29 30
21 19 17 14 13 13 13 13 14 13 13 12 10 10 9 9 9 10 10 11 12 13 14 14 15 16 16 15 15 14 14 14 12 12 13 13 14 15 15 16 17 18 19 19 19 19 18 17 17 16 17 17 18 18 18 18 18 21 25 28 30 29 30 29 26 24 23 21 21 23 21 19 20 22 23 23 22 23 25 23 21 22 26 27 29
20 19 17 15 14 14 14 14 13 13 13 12 11 10 9 9 10 11 11 12 13 13 14 15 15 14 14 14 15 14 13 12 11 11 11 13 13 14 14 16 17 18 19 19 20 20 18 18 19 18 19 21 21 20 21 21 21 22 25 28 30 31 32 31 27 23 21 19 20 20 17 16 19 21 23 24 24 25 25 23 22 22 22 21 23
21 20 17 16 16 16 16 16 15 14 14 13 12 11 11 11 11 12 12 13 14 14 14 14 13 13 14 14 15 13 12 13 13 11 11 12 13 13 14 15 16 17 17 18 19 20 19 18 19 19 19 20 20 22 24 23 22 22 26 29 31 32 32 33 31 27 23 20 21 21 18 18 21 23 24 26 25 26 26 25 24 22 19 15 13
23 20 18 17 17 18 19 18 17 16 15 14 14 12 12 12 12 13 14 14 14 14 13 13 13 13 14 14 15 14 14 17 17 14 13 13 13 14 14 15 16 17 17 18 19 20 20 19 19 20 19 19 20 23 24 22 21 23 26 30 33 33 30 30 32 31 27 23 22 22 21 22 24 25 25 27 25 25 27 27 26 24 21 17 15
22 21 19 18 19 20 20 19 18 16 15 15 14 13 12 13 13 13 14 14 14 14 13 13 12 13 14 15 17 17 16 17 18 16 15 13 12 14 16 17 18 17 17 18 19 20 21 21 21 21 20 20 22 24 23 21 22 25 28 31 32 33 33 32 30 29 28 26 24 24 25 25 26 26 26 26 25 24 25 25 26 25 21 21 22
21 21 21 21 21 22 21 20 18 16 15 15 14 13 13 13 14 14 14 14 14 15 14 13 12 13 14 14 15 16 15 16 16 16 14 13 13 15 17 19 19 18 18 19 20 21 20 18 20 23 23 23 23 24 23 23 24 26 29 31 33 35 37 35 30 27 27 27 26 28 29 29 29 30 29 29 28 26 25 24 25 27 27 27 30
22 23 23 23 23 23 22 21 18 16 15 14 13 13 13 14 14 14 14 14 14 15 15 13 13 13 13 13 13 13 14 15 14 14 13 13 14 15 17 20 20 19 20 20 19 19 17 17 21 24 25 24 24 25 25 24 24 26 29 31 34 39 40 35 30 29 31 30 31 32 33 33 34 34 31 29 30 30 29 27 25 27 29 27 27
24 24 24 24 24 23 21 19 17 16 14 13 12 12 12 13 14 15 16 15 15 17 16 15 14 14 13 14 14 14 14 15 15 15 14 13 13 14 17 19 19 19 20 19 18 19 20 21 21 22 22 23 23 24 24 23 23 25 28 31 35 40 42 37 32 33 37 38 38 39 39 39 40 40 37 33 30 30 30 29 25 23 21 17 17
24 23 24 23 22 22 20 18 17 16 15 13 12 12 11 11 13 15 16 16 17 17 17 16 16 14 15 16 17 17 16 16 16 16 14 12 12 15 16 17 17 18 19 18 19 22 24 22 20 19 19 20 21 21 21 22 23 25 26 30 35 40 43 41 39 41 43 43 43 43 43 43 44 46 46 43 38 33 29 26 25 22 16 11 11
23 23 23 21 20 21 20 19 18 16 15 14 12 11 11 12 13 13 14 16 18 17 16 17 17 16 17 18 18 18 18 16 16 14 12 11 14 16 17 16 17 17 17 18 21 23 23 21 18 16 16 18 19 19 20 22 24 23 24 28 33 37 40 43 47 50 49 46 46 44 39 37 39 43 47 47 45 41 34 27 24 22 16 13 12
23 23 21 18 18 18 17 18 18 15 14 13 12 12 13 13 12 11 13 16 17 16 16 17 17 17 19 19 19 19 18 16 12 9 8 11 15 17 17 16 15 16 16 18 21 21 19 17 16 15 15 17 18 19 21 22 21 20 22 26 28 32 38 46 50 49 47 46 48 45 36 29 31 36 41 44 44 45 42 33 27 24 20 18 17
23 22 19 18 18 17 16 16 16 15 13 11 11 13 13 12 10 10 14 16 15 15 16 17 19 21 20 19 19 19 17 13 9 7 10 14 16 15 13 12 12 13 14 16 19 19 18 16 16 15 16 18 20 22 22 20 18 18 21 24 26 31 41 48 49 45 44 45 45 42 33 23 23 29 33 38 41 45 45 38 31 27 23 20 19
21 20 19 17 18 18 16 15 15 13 12 11 12 11 11 12 12 12 14 14 14 15 17 18 20 19 18 20 22 21 18 13 10 10 13 15 15 13 11 10 11 13 15 16 17 18 17 16 17 17 17 20 23 22 19 17 16 18 21 24 28 33 40 45 45 43 43 43 41 38 32 23 16 22 27 29 34 40 43 39 33 30 26 23 21
16 18 18 17 17 18 16 15 14 12 11 11 10 9 9 9 10 12 13 13 13 16 18 18 17 13 15 19 19 18 17 16 14 14 14 14 13 12 11 12 13 14 16 17 16 16 16 17 17 17 19 22 22 18 16 16 18 21 23 26 29 32 36 40 41 41 41 41 39 35 33 33 25 13 21 25 26 31 36 35 33 31 29 26 24
7 10 14 16 17 17 14 13 12 12 11 10 7 5 6 6 8 12 14 13 14 16 18 18 15 11 11 12 11 10 12 12 12 14 14 12 11 11 12 14 15 16 16 16 17 17 16 16 17 18 19 20 18 16 15 16 20 24 25 26 27 30 33 36 39 40 40 39 38 35 34 37 36 22 8 20 24 26 29 31 31 32 30 28 27
2 3 5 10 14 16 14 13 13 12 10 9 7 4 4 5 10 14 15 13 12 13 14 14 11 7 7 8 9 10 10 10 9 10 11 11 10 11 14 16 16 16 16 17 18 17 15 16 18 18 17 16 16 15 14 15 20 24 23 24 25 27 30 33 35 37 38 37 36 35 36 36 36 33 21 6 20 25 26 28 28 30 30 30 30
9 10 9 8 10 10 9 10 9 9 8 6 5 3 3 5 8 11 11 11 12 12 12 10 7 6 5 6 8 11 10 10 8 6 8 11 12 14 16 15 14 14 15 16 16 14 14 17 18 17 15 14 15 14 13 15 20 22 23 24 25 25 28 31 32 32 33 35 35 34 37 39 36 35 31 15 6 18 23 25 25 27 28 28 30
9 11 12 10 4 4 6 5 4 6 6 4 3 3 4 7 9 11 11 11 11 11 11 8 5 5 5 4 7 10 10 7 5 5 9 13 14 16 16 14 13 13 12 13 13 13 14 16 16 14 12 11 11 11 11 16 21 23 25 26 26 26 27 28 28 28 30 33 35 35 38 40 38 37 39 32 18 5 14 21 22 23 26 26 25
4 7 10 8 6 6 6 6 7 6 5 4 4 4 5 8 10 9 8 6 6 7 9 7 5 6 6 4 6 8 7 4 5 8 12 14 14 15 15 15 15 14 12 12 14 14 14 13 12 11 9 9 10 10 11 15 19 22 25 27 27 26 26 26 26 28 30 32 33 35 37 38 38 40 41 38 34 25 7 14 19 20 23 23 21
5 9 12 12 11 8 7 8 7 5 3 1 2 3 5 7 5 2 1 3 4 5 7 8 7 7 6 4 5 5 3 3 8 12 13 13 12 14 16 17 17 16 15 15 15 13 11 10 9 10 10 10 11 12 12 14 17 19 22 26 27 27 27 28 29 29 31 32 31 34 37 37 36 38 36 34 37 37 26 9 5 13 18 19 17
9 11 11 9 8 7 6 4 3 4 3 1 2 4 5 5 3 1 1 3 4 5 5 6 7 7 4 3 4 4 3 5 10 12 12 11 10 11 15 16 17 17 17 16 14 11 10 9 9 11 11 11 11 12 13 14 16 18 20 23 27 28 28 29 29 29 30 31 31 32 34 34 32 33 32 32 35 37 37 31 20 9 2 5 4
7 8 8 8 7 8 7 5 4 4 4 5 7 6 3 1 0 1 1 3 4 5 5 5 4 3 3 4 4 4 5 7 9 9 10 10 6 6 11 14 15 14 15 13 11 9 9 9 9 10 10 10 11 12 13 15 16 18 20 21 24 27 28 28 29 28 28 30 30 31 31 31 31 31 29 30 33 33 34 35 31 28 23 15 14
5 6 7 4 4 6 9 7 5 6 6 6 7 7 6 4 3 3 3 4 4 5 5 4 3 3 5 5 5 6 6 8 9 9 10 7 3 4 9 13 13 11 11 10 8 9 10 9 9 10 9 9 11 12 13 14 15 17 19 20 22 25 27 28 29 28 27 28 29 31 31 30 31 31 29 29 30 30 30 31 30 29 27 23 21
5 6 5 1 2 2 5 6 5 5 6 5 4 6 7 7 7 6 5 4 4 4 5 6 6 5 4 4 5 7 8 10 11 11 10 7 4 3 6 10 12 11 9 9 9 9 10 9 9 10 10 10 11 12 13 14 14 15 17 18 20 23 26 27 27 26 25 26 27 28 30 31 30 31 31 29 27 27 27 29 29 26 25 24 24
6 6 6 4 4 5 5 4 4 4 4 4 3 4 6 6 9 9 7 5 5 5 5 6 7 6 6 6 7 9 10 12 12 11 9 7 5 4 4 7 12 12 11 10 10 10 11 10 10 11 11 11 12 12 13 14 14 15 17 17 18 21 23 24 25 26 26 26 26 26 28 30 31 31 30 30 28 27 26 26 27 26 24 23 23
6 6 5 4 5 6 7 7 7 6 5 5 5 5 5 3 6 11 10 8 6 6 5 5 5 6 7 8 10 11 11 12 13 12 9 6 5 5 3 3 8 11 13 12 11 11 11 11 11 12 12 12 12 12 13 14 14 15 16 17 18 20 22 23 25 27 26 26 28 28 27 27 29 29 28 29 29 28 26 26 25 23 22 22 22
5 6 6 5 5 6 7 7 5 3 3 4 4 3 2 1 2 5 7 7 8 8 7 5 4 5 7 9 9 10 10 11 15 15 12 7 6 6 4 4 7 9 11 12 12 12 12 11 11 12 12 12 13 12 12 13 15 15 16 17 18 19 21 23 24 25 25 25 27 28 27 26 27 28 27 27 28 27 26 26 25 22 20 20 21
5 5 5 4 4 5 3 2 3 3 3 3 2 1 2 1 1 2 3 4 6 8 9 6 5 6 7 7 7 7 7 8 11 14 14 11 9 9 9 8 8 9 9 10 11 11 11 10 10 11 11 12 12 12 11 13 14 15 16 17 17 18 19 21 22 23 23 23 24 27 27 26 27 28 27 26 26 26 26 26 26 24 22 20 20
4 3 3 2 3 2 3 4 5 6 6 5 4 3 2 1 0 2 4 4 4 7 9 8 7 7 4 4 5 4 4 4 5 7 11 11 10 9 9 9 8 8 8 9 9 9 9 9 9 9 10 11 11 11 11 12 14 15 17 17 17 18 18 18 20 21 21 22 23 25 26 26 26 26 26 25 25 27 27 26 26 25 24 23 21
1 1 1 0 2 4 3 2 3 5 6 4 3 4 3 2 2 3 4 4 4 6 7 6 5 4 2 6 6 4 2 2 3 4 6 8 8 8 8 8 8 8 8 8 8 7 7 8 9 9 9 10 11 12 12 13 13 14 16 17 16 17 18 18 19 20 20 21 23 24 24 24 25 25 25 24 24 25 26 26 26 25 24 24 22
3 2 0 1 3 4 5 5 5 4 4 4 5 5 4 4 3 3 3 5 5 6 5 4 6 6 6 8 8 6 3 2 3 4 5 6 7 6 6 6 7 7 8 8 8 7 7 8 8 9 9 10 11 12 13 14 13 13 15 16 16 17 18 18 19 20 19 19 21 24 24 24 24 24 23 23 23 24 24 25 25 24 23 23 23
5 3 1 1 3 4 5 6 5 4 5 6 7 7 5 4 5 5 4 5 6 6 5 4 6 7 6 6 8 8 6 3 3 4 4 5 6 6 6 6 6 6 7 7 8 7 7 7 7 8 9 10 11 12 13 14 14 13 14 15 15 16 16 16 18 19 19 19 20 22 23 24 23 23 23 22 22 22 22 22 23 23 22 22 24
5 4 2 2 2 3 4 4 4 5 7 8 7 6 5 5 6 5 4 4 5 5 4 5 6 7 5 4 4 5 5 3 2 2 2 3 4 4 4 5 6 6 6 6 7 7 6 6 6 7 9 10 11 12 12 13 13 14 14 14 14 15 15 15 16 18 18 19 19 21 22 23 22 22 23 22 20 20 20 21 21 22 21 21 23
5 6 4 3 2 3 5 7 7 8 9 8 7 6 7 6 5 4 4 4 5 6 5 6 6 5 3 3 1 0 1 2 1 1 0 1 2 3 3 4 5 6 6 6 6 6 5 6 6 6 8 9 10 11 11 12 13 14 14 14 14 15 15 15 16 18 19 19 19 19 20 21 20 21 23 23 21 19 20 20 20 21 20 20 23
6 6 5 4 4 5 7 8 8 7 7 7 6 7 7 7 5 4 4 4 5 5 5 8 7 5 3 2 1 2 1 1 2 2 1 1 2 2 1 2 2 4 4 5 6 6 5 5 6 6 7 8 9 9 10 12 13 14 14 14 14 14 15 15 15 17 20 20 19 19 19 19 19 20 21 22 21 19 19 19 20 21 20 19 20
6 6 6 6 6 6 7 7 7 7 6 5 5 6 7 7 5 5 5 6 6 3 6 10 8 7 6 4 2 4 3 2 1 2 3 3 3 3 4 5 4 3 3 3 5 5 5 4 5 6 7 7 8 8 9 10 12 13 14 14 14 15 17 17 15 16 19 20 19 19 20 19 19 19 20 20 20 19 19 19 19 19 20 19 19
5 6 6 6 6 7 7 7 7 7 6 6 7 8 8 7 6 6 6 6 4 1 3 6 6 5 4 2 3 4 3 2 2 3 5 4 4 5 5 5 5 5 4 3 4 5 5 5 5 6 6 7 8 8 9 10 11 12 13 14 15 16 18 16 14 14 17 18 18 18 19 19 19 19 19 19 19 18 18 18 18 18 19 19 18
6 6 7 7 8 8 8 8 8 9 9 8 8 7 8 8 7 7 6 4 1 2 1 3 4 2 1 3 7 8 6 4 4 4 4 4 6 7 5 0 3 4 5 3 2 3 4 4 5 6 6 6 7 8 8 9 9 10 13 14 14 15 16 15 13 14 15 16 17 18 19 18 18 19 19 19 19 18 18 18 18 17 18 19 18
7 7 8 8 8 7 8 7 6 5 5 6 5 4 5 7 7 7 5 2 3 2 3 7 9 9 7 8 11 10 7 4 5 5 6 6 7 6 1 3 2 2 3 3 2 3 4 4 4 5 5 6 6 7 8 8 9 10 12 14 14 14 14 14 13 14 15 15 16 17 17 17 17 18 19 19 19 18 19 19 17 17 17 18 18
6 6 6 7 6 5 5 6 4 2 4 5 6 5 6 6 5 5 4 1 3 6 9 13 13 11 8 7 8 7 5 5 6 5 5 7 6 3 2 2 1 1 3 3 3 3 4 4 4 4 4 4 5 6 7 7 9 11 12 13 12 12 12 12 12 13 14 14 16 16 16 16 16 16 18 19 19 18 19 20 19 18 17 17 18
4 4 5 6 5 5 5 6 6 7 7 8 9 9 8 7 7 7 6 4 5 8 12 14 9 2 2 5 7 6 5 6 5 4 4 4 3 3 2 2 1 1 2 3 3 3 3 3 3 4 4 4 5 6 5 7 10 11 12 12 11 10 10 10 11 12 13 14 15 16 16 15 15 16 17 18 18 18 18 19 19 18 18 17 18
5 6 7 8 8 10 10 10 11 12 11 10 11 12 11 11 10 11 12 11 9 9 9 10 7 4 5 7 8 6 6 6 5 4 4 4 4 4 4 3 3 2 2 3 3 3 3 3 3 4 3 4 6 6 4 8 10 10 10 12 11 9 9 8 9 11 13 14 15 17 16 14 14 14 16 17 18 18 18 19 19 18 18 17 17
9 9 10 10 9 9 10 11 12 11 11 10 10 9 10 12 11 10 11 12 11 8 7 8 8 7 8 8 8 6 6 5 4 4 4 4 5 5 4 4 4 3 3 3 3 3 3 3 3 3 3 5 6 5 5 9 10 8 8 10 11 10 8 7 7 9 11 13 15 15 14 13 14 14 14 16 17 17 17 18 18 16 16 17 17
Wind_Direction
181 187 192 197 195 193 200 204 205 205 204 207 210 216 232 239 243 247 247 251 258 267 276 279 282 286 288 289 289 291 293 294 296 297 294 293 293 293 292 290 292 297 300 305 313 320 321 322 324 324 324 323 321 323 325 325 322 317 316 312 306 305 300 289 283 283 282 276 269 267 266 263 261 257 254 256 255 250 248 251 253 250 246 246 246
182 188 192 196 195 196 203 205 206 208 206 210 214 221 235 239 239 243 243 247 253 256 266 273 277 281 284 285 287 289 290 292 296 296 294 295 294 294 294 292 293 295 297 303 311 316 316 317 320 320 320 320 319 324 326 325 323 318 316 315 310 308 309 303 295 290 287 282 272 268 268 262 256 254 252 252 253 250 248 250 251 249 246 245 245
182 187 190 195 197 197 203 207 208 211 210 214 222 230 245 249 244 239 240 249 263 268 270 270 270 276 280 280 281 282 285 288 292 290 287 292 294 291 292 293 293 292 293 299 303 307 311 311 312 314 318 319 316 323 328 324 324 324 319 317 314 313 314 311 305 297 288 281 273 267 266 259 252 253 252 252 252 250 247 248 249 247 244 243 245
179 184 189 193 198 197 200 208 212 215 216 219 224 231 250 260 254 236 242 260 276 281 280 276 277 280 279 279 282 282 282 282 284 287 286 285 284 284 286 288 288 289 292 296 298 300 302 302 304 306 310 316 316 320 325 324 324 326 323 319 317 317 316 314 311 306 297 286 275 268 264 257 252 253 254 252 252 249 245 244 244 243 243 244 245
175 180 188 192 196 196 198 208 213 217 222 226 230 235 253 273 283 281 276 281 287 290 293 292 292 287 280 281 287 290 290 284 277 283 291 288 282 282 285 285 283 285 289 293 295 295 295 294 295 297 299 307 312 313 316 319 323 327 326 321 318 318 317 315 313 311 305 294 282 273 265 259 255 254 251 248 249 249 244 240 241 242 242 243 243
172 179 188 192 193 195 198 205 214 220 223 227 235 244 257 269 276 286 302 311 303 298 299 297 294 293 289 289 290 292 298 293 277 278 291 291 283 282 286 284 283 285 287 290 292 291 290 288 287 286 288 297 304 307 310 313 318 324 325 322 319 318 317 316 314 312 308 300 290 278 267 261 257 255 251 246 244 247 244 239 239 240 238 237 236
174 180 190 193 189 193 199 204 213 222 226 228 233 240 252 264 278 299 316 315 306 299 295 291 294 302 305 304 303 300 301 297 284 278 287 289 282 280 282 285 289 292 290 290 289 287 286 283 281 278 277 289 300 302 306 311 314 319 323 322 319 317 317 315 313 310 308 303 294 282 270 263 257 253 252 248 245 249 247 238 234 234 233 231 229
178 182 192 195 187 191 200 205 211 218 224 228 230 235 248 261 274 287 293 295 295 290 288 291 296 302 302 301 301 298 295 296 288 277 281 286 282 279 283 287 291 291 288 289 289 285 282 278 275 271 268 283 301 304 307 312 312 315 319 320 317 315 315 313 309 307 306 301 295 287 274 264 257 252 251 247 243 246 244 238 232 228 226 226 226
177 180 191 195 192 196 203 207 211 215 220 224 227 233 241 248 256 265 271 278 283 283 286 292 294 295 296 297 299 299 299 300 291 272 272 278 276 278 284 286 286 285 285 288 287 283 280 275 273 271 267 277 297 307 311 316 315 314 316 317 315 313 313 311 306 303 302 299 297 293 281 266 256 250 246 242 238 240 241 237 235 230 225 225 225
179 183 191 194 197 201 206 210 211 213 217 219 223 230 236 242 250 255 259 267 275 279 282 286 287 290 295 299 301 300 295 291 284 276 275 273 270 276 280 278 282 285 285 288 288 284 281 277 275 275 272 278 292 303 310 315 318 317 317 316 313 310 309 306 300 297 298 297 297 296 289 276 264 251 245 242 239 238 237 234 235 234 227 224 225
184 186 189 195 198 201 206 210 211 213 217 218 221 227 235 243 250 253 256 262 268 271 275 280 283 285 289 294 296 293 286 283 284 284 284 280 274 272 272 273 281 284 283 287 290 288 287 283 280 281 277 278 288 301 309 312 315 317 318 318 318 315 309 303 296 291 290 290 291 290 287 284 279 266 253 247 241 236 233 231 232 232 224 219 221
186 185 191 197 199 202 206 208 208 211 214 218 224 228 236 246 253 255 258 261 266 269 273 277 281 284 286 287 286 284 284 285 285 282 280 283 280 274 273 275 279 281 283 288 292 294 295 292 286 284 281 280 289 301 307 308 310 313 316 320 324 323 317 309 300 291 287 285 284 282 280 280 282 276 262 252 244 238 235 231 229 226 222 220 218
182 185 194 199 201 205 206 206 206 209 213 219 225 231 238 246 254 258 262 265 267 269 270 273 279 285 285 282 282 282 281 280 283 283 280 279 276 275 278 279 280 280 283 290 297 298 298 296 293 290 289 291 296 300 302 304 308 312 315 321 325 325 323 320 311 300 293 286 278 274 275 274 274 274 269 260 250 242 237 231 225 222 221 223 224
183 188 194 199 205 205 205 207 206 208 214 219 224 230 238 247 255 259 264 268 270 270 268 267 274 280 280 280 285 288 283 277 275 276 279 281 280 279 279 279 280 278 280 290 300 302 303 303 300 298 297 297 297 297 297 301 309 313 317 323 325 325 325 324 318 311 305 296 285 279 278 275 271 270 271 265 257 249 242 233 222 218 221 226 227
189 193 194 200 204 203 203 205 204 208 214 219 225 232 238 247 254 259 262 265 270 273 272 270 272 275 276 277 281 283 282 280 276 275 284 291 289 285 283 281 277 272 277 291 299 303 311 311 300 296 296 297 299 298 296 299 308 314 319 324 325 325 325 323 317 313 309 302 294 286 281 276 270 268 267 263 257 251 248 244 231 221 223 229 230
192 192 194 200 202 201 202 201 202 209 213 218 229 238 243 246 251 260 263 261 264 269 271 271 271 271 273 275 275 275 279 282 281 281 287 291 290 292 291 285 275 267 276 289 292 298 312 315 306 298 295 299 306 302 295 299 310 315 319 323 324 325 325 323 316 312 310 306 299 291 283 275 267 262 259 257 255 253 251 248 240 226 222 228 233
192 191 195 200 199 198 200 200 203 207 211 219 230 240 248 252 256 263 262 258 260 264 267 271 271 270 274 276 276 274 275 278 281 282 285 290 298 303 300 287 273 269 278 285 288 299 313 317 312 303 299 307 315 308 298 304 314 317 320 322 322 324 325 323 319 316 316 314 308 300 290 277 265 258 254 251 249 251 252 246 234 223 214 210 223
195 196 197 199 198 197 198 201 203 204 208 215 224 235 250 256 257 262 263 260 260 263 268 274 273 270 272 275 275 273 273 277 282 280 282 295 306 309 305 294 280 274 278 284 289 300 311 315 313 308 308 315 318 310 305 311 316 318 321 322 320 321 324 323 322 322 323 323 319 314 303 284 264 253 250 247 243 242 245 243 230 220 213 211 217
197 197 199 200 200 200 201 202 203 205 210 212 221 236 248 250 248 256 268 267 266 267 270 275 276 274 273 273 273 270 271 280 288 289 298 309 311 310 305 296 285 279 279 285 292 298 305 314 320 317 315 316 314 311 312 316 317 318 320 321 318 318 323 325 325 325 326 327 327 323 315 293 264 250 246 244 239 235 234 234 228 219 213 215 217
195 196 200 202 203 205 208 207 203 206 213 214 221 232 242 247 248 261 272 271 270 274 276 277 277 278 281 288 289 285 281 281 285 296 311 315 315 313 309 300 291 290 292 292 294 295 298 311 322 321 315 314 314 316 320 321 319 317 321 324 320 319 324 328 330 330 330 331 331 329 325 305 264 249 246 243 236 231 228 227 223 217 214 216 217
194 198 200 200 202 206 210 212 208 208 214 217 220 231 245 252 253 263 271 273 278 285 286 282 280 288 307 318 320 323 324 316 301 301 315 322 322 320 319 315 307 303 302 296 292 292 297 309 321 320 316 315 317 322 328 330 325 323 326 326 323 323 327 331 334 335 335 336 336 336 341 336 287 246 237 235 229 223 222 222 219 216 216 218 218
196 199 202 203 206 208 209 210 206 200 201 208 219 240 255 259 268 279 278 278 285 290 290 288 291 312 327 318 312 321 328 322 315 316 323 327 328 327 327 325 318 311 306 299 293 293 298 308 317 316 315 317 321 329 338 337 335 334 330 325 323 326 331 336 338 338 338 339 340 342 351 355 342 281 223 215 213 213 215 217 217 216 216 217 219
190 202 211 210 209 211 210 205 198 190 190 197 210 235 243 248 278 285 281 280 284 286 290 296 303 317 321 310 311 323 320 313 315 325 329 328 329 332 329 322 316 313 307 299 295 296 300 307 314 315 316 318 322 333 341 339 339 337 331 328 329 333 338 343 345 343 341 341 343 347 354 357 353 343 265 208 201 203 209 211 213 215 218 221 224
332 299 252 223 220 219 209 195 188 183 180 183 189 211 237 241 252 261 267 278 284 283 288 297 305 318 325 332 348 350 333 311 306 320 328 325 324 324 318 313 312 314 312 306 301 299 300 309 316 319 319 319 323 333 339 338 340 341 338 338 340 342 348 351 349 346 344 343 344 349 354 356 355 356 353 246 201 201 206 210 212 216 220 224 226
318 322 318 289 257 224 183 158 161 168 164 163 176 214 266 260 254 256 262 272 277 278 282 290 303 326 336 353 5 360 341 317 309 318 318 314 317 319 318 321 324 325 324 322 315 305 304 313 320 322 323 325 330 336 335 337 344 351 355 356 356 358 1 358 351 348 348 346 344 347 353 356 356 2 11 12 226 210 207 210 214 216 220 225 226
315 312 309 305 277 165 140 130 158 183 181 179 200 233 246 251 261 266 265 267 273 277 282 285 297 318 328 5 16 1 348 338 345 343 319 315 321 327 331 339 341 332 329 330 323 316 317 323 328 331 334 338 343 346 342 342 351 1 6 8 10 10 7 360 353 351 351 348 346 348 354 357 1 11 22 25 14 317 221 215 217 216 216 220 222
313 285 275 260 207 175 173 173 176 180 180 198 224 236 242 252 263 267 267 281 299 305 308 314 323 328 333 349 355 349 353 4 358 341 329 326 333 342 348 352 350 347 346 337 328 325 327 330 339 352 359 359 357 357 351 346 352 2 7 10 13 11 8 4 1 360 357 350 348 353 358 2 8 16 22 24 21 14 333 226 221 219 215 215 218
182 210 221 219 206 188 164 151 157 169 170 193 222 228 244 258 271 301 359 343 345 340 334 337 340 337 340 350 344 345 12 9 345 345 344 337 339 351 357 356 355 356 352 340 334 336 335 335 353 11 12 5 0 359 356 351 352 358 3 6 9 10 11 11 9 5 1 355 353 359 3 4 10 16 17 20 22 21 21 28 211 219 218 214 215
186 195 207 214 194 165 156 161 181 184 169 178 217 218 235 254 273 35 10 332 335 340 342 345 342 342 360 26 4 10 42 4 343 345 344 334 337 356 1 358 356 354 348 340 339 347 352 357 15 20 11 5 4 0 357 354 353 357 360 2 5 9 11 10 6 1 359 358 358 2 3 4 8 13 14 18 21 20 24 32 41 55 122 195 185
192 201 220 223 196 178 191 215 216 190 194 219 212 194 183 214 310 51 27 9 2 357 359 357 349 360 68 76 33 22 19 354 344 347 343 334 335 359 3 2 358 352 349 346 344 355 8 15 23 22 14 11 10 4 358 355 354 355 357 358 2 5 7 6 4 360 359 1 3 4 4 3 6 10 13 19 20 19 23 29 37 46 51 52 53
207 224 235 231 192 195 212 225 222 215 229 239 213 175 146 117 80 58 53 42 21 15 31 40 37 74 110 94 40 22 12 360 359 3 1 357 13 29 16 15 11 3 3 6 8 14 19 21 22 18 15 17 14 6 0 357 354 354 354 354 359 2 2 4 4 2 1 3 5 7 7 5 6 8 13 19 19 17 22 28 32 39 44 46 49
217 235 243 278 12 259 241 245 241 232 242 252 225 184 164 141 113 88 70 65 57 55 70 74 64 65 84 79 49 38 30 22 18 13 12 22 46 39 27 28 26 20 21 29 33 29 24 24 23 16 12 14 12 6 1 358 355 354 352 351 354 358 359 2 3 2 4 5 5 7 9 8 8 10 12 16 17 16 20 25 28 30 34 40 44
233 247 253 263 270 255 243 245 252 252 256 257 236 215 206 176 141 126 114 99 94 95 95 92 81 68 60 57 58 55 44 35 27 16 8 9 8 3 21 44 41 36 36 40 42 35 27 26 23 15 13 14 10 6 4 359 355 354 355 353 353 354 356 360 3 6 9 9 7 9 11 11 12 13 13 13 14 16 18 23 25 26 28 34 37
244 256 267 270 256 237 224 225 234 237 232 234 238 241 247 224 154 145 146 143 136 129 119 106 95 84 76 69 64 60 56 50 42 31 16 2 356 351 346 46 53 46 43 45 48 43 34 29 23 17 16 16 11 8 6 2 359 358 357 356 355 356 358 1 4 7 9 10 10 11 11 12 13 15 15 14 12 13 15 19 23 24 25 29 34
247 258 263 260 256 251 241 233 232 222 196 206 230 245 266 302 139 153 162 166 161 155 149 139 117 97 88 79 65 59 61 59 52 46 39 25 15 17 23 45 57 52 46 47 50 48 41 34 26 19 18 18 15 11 6 3 2 1 358 354 353 355 359 2 3 5 6 9 11 11 10 11 12 13 16 18 15 12 12 14 17 19 19 25 32
253 270 269 241 228 245 250 174 134 143 147 140 134 99 74 67 94 135 142 151 156 152 145 144 143 121 95 75 55 44 47 52 54 54 52 41 31 39 51 55 59 60 53 49 49 48 42 34 25 18 15 13 10 8 4 3 2 359 358 357 355 356 359 0 2 4 5 6 8 10 9 9 10 11 14 16 16 14 13 14 16 16 17 25 33
259 278 291 248 198 152 72 76 111 134 125 111 117 129 117 94 106 121 117 117 131 140 141 146 155 151 118 46 21 15 14 13 22 40 47 44 41 49 58 62 65 66 57 46 43 43 38 29 20 13 8 3 0 1 2 2 0 359 359 360 360 360 0 0 3 6 7 6 6 7 7 7 7 9 11 14 14 15 15 15 15 16 18 25 32
205 199 316 264 163 149 145 168 177 151 130 121 134 143 138 135 134 124 121 111 102 119 130 124 112 108 35 355 354 348 324 314 322 349 25 42 45 50 56 59 61 62 54 42 35 36 38 32 22 15 11 5 1 1 2 1 1 1 1 360 0 1 1 1 4 7 7 6 7 7 6 6 7 7 9 12 13 14 14 15 15 16 19 23 25
171 187 243 123 144 160 175 184 176 149 137 141 150 159 168 163 151 150 151 140 121 113 116 99 72 56 19 356 357 0 5 27 18 10 29 47 49 49 52 53 54 55 50 41 36 36 40 37 26 19 17 12 6 5 5 3 1 3 3 2 1 1 1 2 4 5 4 4 7 8 7 5 5 6 8 11 13 13 14 14 15 16 19 20 20
169 183 188 155 161 161 166 176 177 162 154 160 172 183 186 161 155 167 170 151 130 114 109 102 75 53 28 2 2 9 18 44 47 22 29 51 58 53 49 44 45 47 44 39 36 36 36 34 28 22 19 14 9 8 6 3 0 2 7 7 3 360 1 2 3 4 4 3 5 8 7 6 5 5 6 9 12 14 16 16 16 19 21 21 21
158 161 145 151 176 156 148 159 159 145 148 158 167 166 153 144 157 172 173 153 145 135 118 97 77 61 46 30 21 16 11 15 34 31 35 58 66 59 53 45 40 40 38 35 34 33 30 27 30 29 21 14 12 10 6 4 4 5 7 9 6 1 360 360 1 3 2 1 4 7 7 7 7 6 5 7 10 14 18 18 17 20 23 23 22
153 159 151 142 134 104 100 108 112 122 141 153 154 158 166 167 169 182 196 193 189 182 151 116 107 98 62 31 32 75 10 353 322 283 14 67 74 70 70 64 48 41 39 30 23 23 24 23 28 34 28 20 16 14 10 9 9 8 8 8 7 5 1 357 358 2 1 359 1 4 5 6 9 8 7 7 8 12 17 19 18 19 21 22 22
136 145 135 121 120 116 112 119 131 144 158 163 160 165 175 177 178 199 217 221 222 204 154 128 131 147 135 68 353 235 242 316 292 255 232 160 137 125 119 108 75 54 47 36 21 14 15 20 31 38 35 28 23 21 19 17 15 13 11 8 6 6 4 0 2 4 360 355 356 0 3 6 10 10 10 10 10 11 16 18 18 19 20 19 20
130 131 127 126 134 134 127 133 149 157 161 169 171 171 175 182 197 222 239 251 263 239 153 143 149 157 149 142 226 251 252 281 289 261 249 226 203 210 211 188 154 113 78 52 31 18 12 21 35 39 38 37 33 29 29 28 23 18 16 13 10 7 5 6 11 11 0 353 354 359 0 4 10 11 10 11 12 13 15 16 16 18 20 19 18
145 144 145 144 150 151 146 150 163 169 173 185 194 194 197 206 223 245 253 259 275 293 142 155 161 151 141 170 257 260 248 229 229 251 260 255 249 255 247 208 157 116 83 57 41 31 24 29 40 42 40 42 42 37 35 36 30 19 15 15 16 13 8 8 16 19 7 358 360 2 359 1 8 9 8 11 15 16 15 15 15 17 20 19 17
160 159 160 160 164 168 171 180 189 189 192 200 204 203 210 222 235 244 252 270 350 75 164 225 241 237 208 233 235 233 228 218 215 228 240 251 265 275 280 172 107 89 71 57 46 48 46 43 45 46 44 46 48 45 42 41 32 19 13 13 15 16 13 12 19 24 15 6 7 6 0 359 5 8 6 9 14 16 15 15 15 18 21 20 17
181 177 172 173 177 176 173 175 180 191 214 224 223 228 243 245 230 211 210 258 327 324 255 234 223 213 212 224 227 227 231 233 229 224 212 210 230 252 303 70 78 86 90 87 72 60 61 58 53 53 50 50 53 53 51 45 32 18 14 13 12 13 16 19 25 27 22 15 15 14 5 360 3 7 7 8 10 13 13 12 11 17 22 21 17
194 200 197 196 199 195 181 178 188 256 270 251 242 247 257 253 227 188 175 236 285 274 260 246 224 194 183 214 231 230 233 234 232 227 209 192 189 181 93 78 87 138 118 112 102 80 74 67 60 59 60 60 62 63 57 42 25 15 14 13 11 11 16 21 26 28 26 24 24 21 13 4 3 7 9 9 10 11 11 8 7 13 21 22 19
220 252 247 229 226 233 227 220 226 236 243 245 241 233 228 229 222 195 176 191 228 242 252 259 256 204 162 238 238 223 215 222 226 231 221 192 164 137 122 132 165 165 133 123 118 108 102 93 79 73 71 72 79 81 57 24 13 13 14 12 10 14 20 25 30 31 29 27 28 27 19 9 5 7 10 11 10 10 10 8 7 11 18 20 19
224 233 236 226 222 226 227 222 221 223 227 234 232 221 214 221 220 194 177 183 204 220 238 254 259 236 221 231 231 220 213 213 215 217 206 180 160 154 155 160 176 177 148 137 137 132 124 115 103 96 89 87 95 96 52 11 7 11 11 9 10 17 24 32 41 40 33 29 30 28 19 9 8 11 12 12 11 10 9 8 8 12 16 16 17
236 225 226 225 228 235 235 228 225 228 234 242 247 243 231 227 223 205 190 191 191 192 214 236 238 228 222 219 215 214 211 201 199 208 197 175 170 175 170 169 182 186 170 160 158 148 136 122 107 103 101 99 101 93 36 12 12 13 9 10 14 15 19 32 47 46 38 34 33 27 17 10 11 14 14 11 10 10 9 7 8 13 16 14 15